Regional Weather Roundup
Issued by NWS

Home | Current Version | Previous Version | Graphics & Text | Print | Product List | Glossary Off
Versions: 1 2 3 4 5 6 7 8 9 10 11 12 13 14 15 16 17 18 19 20 21 22 23 24 25 26 27 28 29 30 31 32 33 34 35 36 37 38 39 40 41 42 43 44 45 46 47 48 49 50

000
ASUS43 KMPX 231810
RWRMN
WEATHER ROUNDUP FOR MINNESOTA
NATIONAL WEATHER SERVICE TWIN CITIES/CHANHASSEN MN
100 PM CDT SAT SEP 23 2017


NOTE: "FAIR" INDICATES FEW OR NO CLOUDS BELOW 12,000 FEET WITH NO
SIGNIFICANT WEATHER AND/OR OBSTRUCTIONS TO VISIBILITY. N/A MEANS
CURRENT SKY AND/OR WEATHER CONDITIONS ARE NOT AVAILABLE.

MNZ060>063-068>070-231900-
   Twin Cities Metro

CITY           SKY/WX    TMP DP  RH WIND       PRES   REMARKS
TWIN CITIES    PTSUNNY   85  71  63 S13       29.96S HX  90
6HR MIN TEMP:  73; 6HR MAX TEMP:  85;

ST PAUL        MOSUNNY   84  72  67 SE9       29.96S
CRYSTAL        PTSUNNY   82  67  60 S8        29.95R
BLAINE         PTSUNNY   84  70  61 S10       29.95S
LAKEVILLE      MOSUNNY   82  70  65 S8        29.98S
EDEN PRAIRIE   MOSUNNY   83  71  67 S12       29.95F
6HR MIN TEMP:  73; 6HR MAX TEMP:  84;

SOUTH ST PAUL  SUNNY     83  69  60 SW9       29.96S
LAKE ELMO      FAIR      82  72  69 S10       29.98S
$$
MNZ001>005-007-008-013>017-022>024-027-028-231900-
   Northwest Minnesota

CITY           SKY/WX    TMP DP  RH WIND       PRES   REMARKS
BEMIDJI        CLOUDY    54  52  93 W5        30.03R
HALLOCK          N/A     59  50  72 N16       30.05S
ROSEAU         CLOUDY    54  48  82 NW12      30.02R
WARROAD        CLOUDY    54  52  94 NW9       30.01R
THIEF RVR FALL CLOUDY    54  50  86 NW10      30.06R
CROOKSTON      CLOUDY    55  50  82 NW12      30.07R
FOSSTON        CLOUDY    54  50  87 W7        30.05R
DETROIT LAKES  CLOUDY    52  50  93 N6        30.06R
MOORHEAD       CLOUDY    55  48  76 N7        30.06R
PARK RAPIDS    LGT RAIN  56  53  90 NW5       30.02R
MAHNOMEN       CLOUDY    53  50  91 NW6       30.05R
$$
MNZ006-009>011-018-025>026-231900-
   North Central Minnesota

CITY           SKY/WX    TMP DP  RH WIND       PRES   REMARKS
BAUDETTE       CLOUDY    56  53  90 NW10      29.97F
FLAG ISLAND    CLOUDY    54  52  94 NW14      29.98R
INTL FALLS     CLOUDY    58  54  86 SW6       29.99R
6HR MIN TEMP:  57; 6HR MAX TEMP:  62;

WASKISH        CLOUDY    57  54  88 SW5       30.02R
BIG FORK       CLOUDY    57  55  94 CALM      29.98F
LONGVILLE      CLOUDY    61  57  88 NW6       30.02R
GRAND RAPIDS   CLOUDY    65  60  84 W5        30.01R
CRANE LAKE     CLOUDY    63  59  88 CALM      29.99R
ORR            CLOUDY    61  55  82 W3        29.97S
COOK           CLOUDY    64  59  82 NW6       29.99R
WALKER         LGT RAIN  54  53  96 W3        30.03R
$$
MNZ012-019>021-037-231900-
   Northeast Minnesota

CITY           SKY/WX    TMP DP  RH WIND       PRES   REMARKS
DULUTH         MOSUNNY   82  71  69 SW7       29.96R
6HR MIN TEMP:  67; 6HR MAX TEMP:  82;

ELY            CLOUDY    68  64  88 NW10G16   29.98R
HIBBING        CLOUDY    69  64  84 W6        29.98R
EVELETH          N/A     75  65  71 W8        29.98S
DULUTH HARBOR  SUNNY     84  73  70 CALM      29.92R HX  91
GRAND MARAIS     N/A     67  63  87 SW6       29.91F
$$
MNZ029>031-032-039>041-046>048-054>057-064-231900-
   West Central Minnesota

CITY           SKY/WX    TMP DP  RH WIND       PRES   REMARKS
FERGUS FALLS   LGT RAIN  52  52 100 NW6       30.06R
WHEATON        RAIN      54  50  87 N9        30.04F
ALEXANDRIA     CLOUDY    61  58  90 NW8       30.03R
ELBOW LAKE     LGT RAIN  54  53  97 N3        30.04S
WADENA         CLOUDY    55  55 100 NW3       30.03F
GLENWOOD       CLOUDY    63  59  88 NW9       30.02R
APPLETON       CLOUDY    59  54  82 NW10      30.04R
BENSON         CLOUDY    63  55  77 N12       30.04R
ORTONVILLE     RAIN      55  52  88 NE7       30.01F
MADISON        CLOUDY    61  61 100 N9G17     30.01F
WILLMAR        FAIR      72  63  73 NW6       30.00S
$$
MNZ033>034-036-042>043-049>051-058-059-231900-
   Central Minnesota

CITY           SKY/WX    TMP DP  RH WIND       PRES   REMARKS
ST CLOUD       CLOUDY    81  71  71 S9        29.95F
6HR MIN TEMP:  69; 6HR MAX TEMP:  81;

SAUK CENTRE    MOCLDY    65  62  87 W7        30.00S
PAYNESVILLE    CLOUDY    75  66  72 W5        29.98S
AITKIN         CLOUDY    70  64  83 NW6       29.97R
PINE RIVER     CLOUDY    61  55  82 NW5       30.04R
BRAINERD       CLOUDY    65  61  87 NW6       29.99S
STAPLES        CLOUDY    61  57  88 NW8       30.03R
LITTLE FALLS   CLOUDY    70  59  68 NW5       29.98F
LITCHFIELD     MOSUNNY   79  70  73 CALM      29.97S
BUFFALO        PTSUNNY   83  68  60 SW7       29.96F
MAPLE LAKE     PTSUNNY   83  72  70 S5        29.97S
HUTCHINSON     CLOUDY    81  71  71 SW5       29.97S
$$
MNZ037-044-045-052-053-231900-
   East Central Minnesota

CITY           SKY/WX    TMP DP  RH WIND       PRES   REMARKS
PRINCETON      CLOUDY    84  72  65 SW8       29.95F
MORA           PTSUNNY   79  68  69 W6        29.97S
RUSH CITY      PTSUNNY   82  70  66 SW6       29.96R
MOOSE LAKE     PTSUNNY   82  70  65 SW8       29.94S
HINCKLEY       MOCLDY    82  72  69 SW9G17    29.96R
CLOQUET        MOSUNNY   82  66  57 SW8       29.96R
MCGREGOR       CLOUDY    73  68  83 W8        29.97S
$$
MNZ071>073-080-081-089-090-097-098-231900-
   Southwest Minnesota

CITY           SKY/WX    TMP DP  RH WIND       PRES   REMARKS
MONTEVIDEO     CLOUDY    63  61  94 N8        30.02R
GRANITE FALLS  CLOUDY    68  60  75 NW9       30.01R
CANBY          CLOUDY    58  55  91 N7        30.04R
MARSHALL       CLOUDY    66  58  75 N14       29.99R
REDWOOD FALLS  CLOUDY    78  66  66 S6        29.96S
OLIVIA         PTSUNNY   73  63  68 NW5       29.97S
PIPESTONE      MOSUNNY   73  66  78 S6        29.97F
WORTHINGTON    CLOUDY    79  69  71 SW7       29.98S
JACKSON        MOSUNNY   82  68  61 CALM      29.98S
TRACY          CLOUDY    74  67  79 CALM      29.98S
SLAYTON        CLOUDY    74  59  60 SE5       29.99S
$$
MNZ065>067-074>077-082>085-091>093-231900-
   South Central Minnesota

CITY           SKY/WX    TMP DP  RH WIND       PRES   REMARKS
MANKATO        MOSUNNY   83  71  67 VRB7      29.97F
NEW ULM        MOSUNNY   81  66  61 S10       29.96F
ST JAMES       MOSUNNY   84  70  61 S9        29.96F
FAIRMONT       MOSUNNY   85  70  60 S13       29.97
FARIBAULT      PTSUNNY   84  72  65 S8        29.99S
OWATONNA       PTSUNNY   84  72  65 S9        29.99F
WASECA         MOSUNNY   82  68  61 S9        30.00F
ALBERT LEA     PTSUNNY   84  72  65 SW3       30.00F
$$
MNZ078>079-086>088-094>096-231900-
   Southeast Minnesota

CITY           SKY/WX    TMP DP  RH WIND       PRES   REMARKS
ROCHESTER      MOSUNNY   85  69  58 SW12      30.02F
6HR MIN TEMP:  68; 6HR MAX TEMP:  87;

RED WING       SUNNY     86  66  51 S5        29.97S
STANTON        MOSUNNY   85  69  59 S10       29.97S
DODGE CENTER   MOSUNNY   84  66  54 S7        30.02S
WINONA         SUNNY     90  64  43 SW10      30.00F HX  91
AUSTIN         CLOUDY    84  68  58 SW7       30.01F
PRESTON        MOSUNNY   86  65  48 S14G21    30.04S
$$
ABBREVIATIONS USED IN REMARKS
   TC - TEMPERATURES IN CELSIUS
  WCI - WIND CHILL INDEX
   HX - HEAT INDEX
  VSB - VISIBILITY
$$




USA.gov is the U.S. government's official web portal to all federal, state and local government web resources and services.